TimeMST,TemperatureF,Dew PointF,Humidity,Sea Level PressureIn,VisibilityMPH,Wind Direction,Wind SpeedMPH,Gust SpeedMPH,PrecipitationIn,Events,Conditions,WindDirDegrees,DateUTC
12:52 AM,37.9,26.1,62,29.89,10.0,SSW,15.0,-,N/A,,Clear,210,2013-03-06 07:52:00
1:52 AM,41.0,25.0,53,29.84,10.0,SSW,20.7,-,N/A,,Clear,210,2013-03-06 08:52:00
2:52 AM,36.0,25.0,64,29.84,10.0,SW,11.5,-,N/A,,Clear,220,2013-03-06 09:52:00
3:52 AM,36.0,25.0,64,29.83,10.0,WSW,9.2,-,N/A,,Clear,240,2013-03-06 10:52:00
4:52 AM,36.0,26.1,67,29.83,10.0,SSW,12.7,-,N/A,,Clear,210,2013-03-06 11:52:00
5:52 AM,37.9,26.1,62,29.84,10.0,South,15.0,-,N/A,,Clear,190,2013-03-06 12:52:00
6:52 AM,39.9,27.0,60,29.88,10.0,SSW,16.1,-,N/A,,Clear,210,2013-03-06 13:52:00
7:52 AM,37.0,27.0,67,29.88,10.0,SSW,15.0,-,N/A,,Scattered Clouds,210,2013-03-06 14:52:00
8:52 AM,48.0,28.0,46,29.87,10.0,SSW,20.7,-,N/A,,Clear,200,2013-03-06 15:52:00
8:55 AM,48.2,28.4,46,29.92,0.8,South,20.7,-,N/A,,Haze,190,2013-03-06 15:55:00
9:11 AM,48.2,28.4,46,29.92,3.0,South,21.9,26.5,N/A,,Haze,190,2013-03-06 16:11:00
9:44 AM,51.8,28.4,41,29.89,1.2,South,29.9,43.7,N/A,,Haze,180,2013-03-06 16:44:00
9:52 AM,52.0,27.0,38,29.83,1.0,South,31.1,42.6,N/A,,Haze,190,2013-03-06 16:52:00
9:57 AM,53.6,28.4,38,29.89,0.2,South,28.8,42.6,N/A,,Haze,190,2013-03-06 16:57:00
10:12 AM,53.6,26.6,35,29.89,3.0,South,32.2,39.1,N/A,,Haze,190,2013-03-06 17:12:00
10:52 AM,55.0,27.0,34,29.81,10.0,SSW,28.8,43.7,N/A,,Partly Cloudy,200,2013-03-06 17:52:00
11:52 AM,57.0,25.0,29,29.81,10.0,South,35.7,43.7,N/A,,Scattered Clouds,190,2013-03-06 18:52:00
12:52 PM,60.1,24.1,25,29.77,10.0,South,28.8,39.1,N/A,,Scattered Clouds,180,2013-03-06 19:52:00
1:52 PM,61.0,23.0,23,29.72,10.0,SSW,35.7,43.7,N/A,,Clear,200,2013-03-06 20:52:00
2:52 PM,59.0,19.9,22,29.72,10.0,SSW,34.5,44.9,N/A,,Clear,210,2013-03-06 21:52:00
3:52 PM,57.0,18.0,22,29.71,10.0,SW,36.8,44.9,N/A,,Clear,220,2013-03-06 22:52:00
4:52 PM,57.0,15.1,19,29.73,10.0,SW,34.5,46.0,N/A,,Clear,220,2013-03-06 23:52:00
5:52 PM,53.1,14.0,21,29.77,10.0,SW,26.5,42.6,N/A,,Clear,230,2013-03-07 00:52:00
6:52 PM,52.0,17.1,25,29.78,10.0,SW,25.3,34.5,N/A,,Clear,220,2013-03-07 01:52:00
7:52 PM,48.0,19.9,33,29.81,10.0,South,10.4,23.0,N/A,,Clear,170,2013-03-07 02:52:00
8:52 PM,46.9,21.0,36,29.78,10.0,South,11.5,-,N/A,,Clear,170,2013-03-07 03:52:00
9:08 PM,48.2,21.2,34,29.86,1.5,South,16.1,-,N/A,,Haze,180,2013-03-07 04:08:00
9:13 PM,48.2,19.4,32,29.86,1.2,South,15.0,-,N/A,,Haze,180,2013-03-07 04:13:00
9:15 PM,48.2,19.4,32,29.86,1.8,South,13.8,-,N/A,,Haze,170,2013-03-07 04:15:00
9:18 PM,46.4,21.2,37,29.86,4.0,South,15.0,-,N/A,,Haze,170,2013-03-07 04:18:00
9:52 PM,46.0,21.0,37,29.78,10.0,SSW,9.2,-,N/A,,Clear,200,2013-03-07 04:52:00
10:52 PM,42.1,21.0,43,29.79,10.0,SW,10.4,-,N/A,,Clear,220,2013-03-07 05:52:00
11:10 PM,39.2,21.2,49,29.87,0.2,SW,10.4,-,N/A,,Haze,230,2013-03-07 06:10:00
11:18 PM,39.2,21.2,49,29.87,2.5,SW,10.4,-,N/A,,Haze,220,2013-03-07 06:18:00
11:23 PM,41.0,21.2,45,29.87,10.0,SW,10.4,-,N/A,,Clear,220,2013-03-07 06:23:00
11:52 PM,39.0,21.9,50,29.81,10.0,SSW,10.4,-,N/A,,Clear,200,2013-03-07 06:52:00